Back to catalog

STARLINK-33989

AliveCommunicationsVLEO
NORAD 63929·PAYLOAD·🇺🇸 United States

Launched May 13, 2025 from Vandenberg Space Force Base

Loading…

Next Passes (next 24 hours)

TLE

FreshSource: CelesTrak SupGP

Epoch: Sep 14, 2026, 21:10 UTC

1 63929C 25098D   26257.88243056 -.00033765  00000+0 -11743-2 0  2571
2 63929  70.0005 155.8713 0003421 271.5912 353.9808 15.29602474    17

Track STARLINK-33989 in real time with AllMySat

Download on the App Store